Lid_Strength_Index
12 12 11 10 8 7 7 6 5 4 3 4 4 4 5 5 4 4 4 4 3 2 2 2 2 1 2 2 2 2 3 4 6 15 14 14 15 14 13 12 10 9 9
13 12 11 10 8 8 7 6 5 5 4 5 5 6 6 6 6 6 5 5 4 4 4 3 2 2 2 2 2 3 3 4 9 14 16 16 16 15 15 14 13 13 10
13 12 11 10 9 8 8 7 6 6 6 7 7 7 8 7 8 7 7 7 7 6 6 4 3 3 2 3 3 4 4 8 9 13 16 16 16 15 15 15 15 16 14
13 13 12 11 10 9 8 8 8 7 8 8 8 9 9 8 8 9 9 9 9 9 9 8 6 3 4 5 5 6 9 9 11 13 16 16 16 16 15 16 16 16 16
14 13 12 11 10 9 9 9 8 9 9 9 10 10 10 9 9 10 10 10 10 10 11 11 11 11 9 6 7 9 9 11 13 14 16 15 16 16 15 16 17 17 17
14 13 12 11 11 10 10 10 10 10 10 10 11 11 11 10 8 9 10 11 11 11 11 12 13 12 10 10 11 10 10 12 13 14 16 15 15 16 16 16 17 17 18
14 12 12 12 12 11 11 11 11 11 11 11 11 11 11 11 10 10 11 12 12 12 12 12 12 13 14 13 14 13 13 13 12 14 15 15 16 16 16 16 16 17 18
15 13 12 13 12 12 11 11 11 11 11 12 12 12 11 11 10 10 11 12 13 12 12 13 15 15 15 15 15 15 15 15 16 15 15 16 16 15 15 16 17 19 17
16 14 13 13 14 13 13 13 12 12 12 12 12 12 12 12 10 10 12 12 13 13 13 15 16 15 15 15 16 17 18 18 15 14 14 14 14 14 16 16 18 17 19
17 14 13 13 13 13 13 14 13 13 13 13 13 12 12 12 10 11 12 13 14 14 14 13 15 16 15 16 17 18 20 20 20 20 20 20 19 18 18 18 17 18 20
16 15 15 14 14 14 14 14 14 14 14 15 15 15 13 12 12 12 13 15 14 15 15 15 15 14 15 15 16 18 19 19 19 21 21 21 21 22 22 21 20 19 20
17 16 16 16 15 15 15 15 16 16 17 17 17 16 16 15 13 13 14 14 14 16 17 16 15 15 15 16 17 17 18 20 22 22 22 23 23 23 24 24 24 24 23
17 18 18 17 16 16 17 17 17 17 18 18 18 18 18 17 16 14 14 15 15 17 17 17 17 17 17 17 17 19 21 22 22 24 24 24 24 23 25 26 25 26 25
21 20 18 17 17 17 16 17 17 18 18 18 18 18 18 17 17 17 17 18 18 19 18 19 19 19 20 22 23 22 23 23 23 24 25 25 25 26 27 26 26 26 26
20 20 20 19 19 18 17 18 17 18 17 19 21 19 18 18 16 14 16 17 18 18 22 22 22 22 23 24 24 24 23 24 24 24 25 25 25 25 26 27 28 30 29
21 21 21 21 21 20 19 16 13 14 14 14 14 16 16 15 14 14 14 14 15 18 25 26 24 24 25 25 26 26 26 26 26 26 27 26 27 27 27 28 28 29 29
22 21 21 20 21 22 22 22 24 19 14 14 14 15 15 15 15 15 14 14 16 21 29 29 27 27 27 27 27 27 28 29 30 29 30 29 29 30 30 31 31 31 33
26 23 23 23 23 23 23 24 25 26 27 26 20 17 16 16 16 16 17 22 29 28 31 32 31 30 29 29 30 31 31 31 32 31 32 33 33 33 32 33 33 35 36
26 26 27 27 26 25 24 25 26 29 30 31 31 24 26 19 19 20 21 31 32 33 36 33 34 32 33 33 34 35 35 35 36 35 36 35 37 34 38 37 34 35 36
28 26 27 27 28 27 27 27 29 31 31 32 33 33 32 30 32 34 34 36 34 35 36 34 38 38 37 36 37 37 36 37 37 37 39 38 39 36 36 38 38 36 38
27 27 27 28 27 27 27 28 29 31 32 34 33 32 25 33 36 36 37 38 38 38 38 38 39 40 40 40 40 39 38 37 39 39 39 40 40 38 40 37 39 39 39
26 27 28 27 28 28 29 29 29 30 31 31 32 30 21 34 35 37 38 39 40 40 39 37 38 39 38 37 38 38 38 39 41 40 39 40 40 40 40 39 39 38 39
27 28 29 31 29 30 30 30 30 30 31 32 32 31 34 36 37 37 37 40 41 40 42 41 39 40 42 42 41 37 36 37 36 37 37 39 40 39 39 38 38 39 38
27 27 27 28 30 29 29 30 31 31 31 32 33 34 34 36 36 36 38 40 40 41 42 40 40 38 40 41 42 42 41 41 41 36 36 37 38 38 40 39 38 38 37
26 27 27 27 29 29 31 32 31 32 32 31 34 36 37 37 37 38 39 40 40 40 39 41 41 39 38 38 39 40 40 30 36 37 39 38 36 37 39 38 38 39 39
27 28 28 30 31 31 31 31 32 32 33 33 34 35 35 35 36 38 39 40 39 39 39 40 40 37 37 37 36 33 31 26 30 30 34 36 36 36 38 36 37 38 37